Flag for U.S.A. Weather past 2 weeks in Grand Junction, Colorado, U.S.A.

Now
21 °F

Clear.


Feels Like: 12 °F
Forecast: 21 / 47 °F
Wind: 7 mph from East

Location: Walker Field

Current Time: Jan 25, 2015 at 7:20:15 AM

Latest Report: Jan 25, 2015 at 6:53 AM


Visibility: 10 mi

Pressure: 30.47 "Hg

Humidity: 81%

Dew point: 16 °F

Location of Grand JunctionLocation

Historic Weather in Grand Junction — Graph

°F

Grand Junction temperature yesterday

Maximum temperature yesterday: 40 °F (at 2:53 PM)
Minimum temperature yesterday: 20 °F (at 4:53 AM)
Average temperature yesterday: 29 °F

Past Weeks' High & Low Weather Summary

 TemperatureHumidityPressure
High47 °F (Jan 17, 3:53 PM)100% (Jan 11, 4:00 AM)30.55 "Hg (Jan 11, 4:00 AM)
Low18 °F (Jan 23, 3:53 AM)25% (Jan 23, 2:53 PM)30.04 "Hg (Jan 13, 12:53 AM)
Average32 °F75%30.30 "Hg
* Reported Jan 10 5:53 AM — Jan 25 5:53 AM, Grand Junction, Weather by CustomWeather, © 2014

Note: Actual official high and low records may vary slightly from our data, if they occured in-between our weather recording intervals... More about our weather records

Advertising

Grand Junction weather history for previous 24 hours

 ConditionsComfort  
Time TempWeatherWind HumidityBarometerVisibility
5:53 AM
Jan 25
23 °FClear.12 mph78%30.45 "Hg10 mi
4:53 AM23 °FClear.10 mph74%30.42 "Hg10 mi
3:53 AM24 °FClear.9 mph71%30.42 "Hg10 mi
2:53 AM24 °FClear.9 mph75%30.42 "Hg10 mi
1:53 AM25 °FClear.3 mph69%30.42 "Hg10 mi
12:53 AM24 °FClear.8 mph75%30.43 "Hg10 mi
11:53 PM
Jan 24
26 °FClear.8 mph69%30.44 "Hg10 mi
10:53 PM25 °FClear.5 mph72%30.45 "Hg10 mi
9:53 PM25 °FClear.5 mph72%30.47 "Hg10 mi
8:53 PM26 °FClear.3 mph71%30.45 "Hg10 mi
7:53 PM28 °FClear.3 mph66%30.45 "Hg10 mi
6:53 PM29 °FClear.3 mph66%30.44 "Hg10 mi
5:53 PM30 °FClear.No wind66%30.43 "Hg10 mi
4:53 PM38 °FSunny.No wind37%30.39 "Hg10 mi
3:53 PM40 °FSunny.No wind30%30.38 "Hg10 mi
2:53 PM40 °FSunny.No wind28%30.38 "Hg10 mi
1:53 PM38 °FSunny.No wind31%30.37 "Hg10 mi
12:53 PM38 °FSunny.5 mph33%30.39 "Hg10 mi
11:53 AM35 °FSunny.8 mph36%30.44 "Hg10 mi
10:53 AM33 °FSunny.12 mph41%30.50 "Hg10 mi
9:53 AM29 °FSunny.5 mph56%30.53 "Hg10 mi
8:53 AM27 °FSunny.8 mph58%30.52 "Hg10 mi
7:53 AM22 °FSunny.9 mph68%30.50 "Hg10 mi
Weather by CustomWeather, © 2014

See weather overviewHow to use our weather pages